• In Uzbekistan
  • List of Countries
  • For 7 days
  • Water Temperature
  • Satellite Maps
  • Weather Map
  • Weather Widgets
  • user-avatar
    Login

    Hourly Weather Haikou

    Today, 26 September, Wednesday

    Time Temperature Precipitation Wind Pressure Humidity
    00:00 +28°C° 0 mm 3 mps 756 mmHg 86%
    01:00 +28°C° 0 mm 4 mps 756 mmHg 86%
    02:00 +28°C° 0 mm 4 mps 756 mmHg 86%
    03:00 +28°C° 0 mm 3 mps 756 mmHg 87%
    04:00 +28°C° 0 mm 3 mps 756 mmHg 87%
    05:00 +28°C° 0 mm 3 mps 756 mmHg 86%
    06:00 +29°C° 0 mm 3 mps 757 mmHg 84%
    07:00 +30°C° 0 mm 3 mps 757 mmHg 81%
    08:00 +31°C° 0 mm 3 mps 757 mmHg 76%
    09:00 +33°C° 0 mm 3 mps 757 mmHg 71%
    10:00 +34°C° 0 mm 3 mps 757 mmHg 66%
    11:00 +34°C° 0.1 mm 3 mps 757 mmHg 66%
    12:00 +34°C° 0.1 mm 3 mps 756 mmHg 65%
    13:00 +34°C° 0 mm 3 mps 756 mmHg 66%
    14:00 +34°C° 0.3 mm 4 mps 756 mmHg 69%
    15:00 +33°C° 0.3 mm 4 mps 756 mmHg 71%
    16:00 +33°C° 0.3 mm 4 mps 755 mmHg 74%
    17:00 +32°C° 0.1 mm 4 mps 756 mmHg 78%
    18:00 +30°C° 0.1 mm 4 mps 756 mmHg 81%
    19:00 +29°C° 0.1 mm 4 mps 756 mmHg 84%
    20:00 +29°C° 0 mm 4 mps 757 mmHg 85%
    21:00 +29°C° 0 mm 4 mps 757 mmHg 85%
    22:00 +28°C° 0 mm 4 mps 757 mmHg 86%
    23:00 +28°C° 0 mm 4 mps 757 mmHg 86%

    Tomorrow, 27 September, Thursday

    Time Temperature Precipitation Wind Pressure Humidity
    00:00 +28°C° 0 mm 4 mps 757 mmHg 87%
    01:00 +28°C° 0 mm 3 mps 757 mmHg 87%
    02:00 +28°C° 0 mm 3 mps 757 mmHg 88%
    03:00 +28°C° 0 mm 3 mps 757 mmHg 89%
    04:00 +28°C° 0 mm 3 mps 756 mmHg 89%
    05:00 +28°C° 0 mm 3 mps 757 mmHg 87%
    06:00 +29°C° 0 mm 3 mps 757 mmHg 85%
    07:00 +29°C° 0 mm 3 mps 757 mmHg 82%
    08:00 +30°C° 0 mm 3 mps 757 mmHg 76%
    09:00 +32°C° 0 mm 2 mps 757 mmHg 70%
    10:00 +34°C° 0 mm 2 mps 758 mmHg 64%
    11:00 +34°C° 0 mm 3 mps 757 mmHg 63%
    12:00 +34°C° 0 mm 3 mps 757 mmHg 62%
    13:00 +35°C° 0 mm 3 mps 756 mmHg 60%
    14:00 +34°C° 0 mm 4 mps 756 mmHg 63%
    15:00 +33°C° 0 mm 4 mps 755 mmHg 66%
    16:00 +33°C° 0 mm 4 mps 755 mmHg 69%
    17:00 +32°C° 0 mm 4 mps 756 mmHg 74%
    18:00 +30°C° 0 mm 4 mps 756 mmHg 78%
    19:00 +29°C° 0 mm 3 mps 757 mmHg 82%
    20:00 +29°C° 0 mm 3 mps 757 mmHg 83%
    21:00 +29°C° 0 mm 3 mps 758 mmHg 83%
    22:00 +28°C° 0 mm 3 mps 758 mmHg 84%
    23:00 +28°C° 0.3 mm 2 mps 758 mmHg 85%

    Day after tomorrow, 28 September, Friday

    Time Temperature Precipitation Wind Pressure Humidity
    00:00 +28°C° 0.3 mm 2 mps 757 mmHg 86%
    01:00 +28°C° 0.3 mm 2 mps 757 mmHg 86%
    02:00 +28°C° 0.2 mm 2 mps 757 mmHg 86%
    03:00 +28°C° 0.2 mm 1 mps 757 mmHg 86%
    04:00 +27°C° 0.2 mm 1 mps 756 mmHg 86%
    05:00 +28°C° 0 mm 1 mps 757 mmHg 84%
    06:00 +29°C° 0 mm 1 mps 757 mmHg 82%
    07:00 +29°C° 0 mm 1 mps 757 mmHg 79%
    08:00 +30°C° 0.1 mm 1 mps 758 mmHg 74%
    09:00 +31°C° 0.1 mm 1 mps 758 mmHg 69%
    10:00 +32°C° 0.1 mm 2 mps 758 mmHg 64%
    11:00 +32°C° 0.8 mm 2 mps 757 mmHg 66%
    12:00 +33°C° 0.8 mm 3 mps 757 mmHg 68%
    13:00 +33°C° 0.8 mm 3 mps 756 mmHg 71%
    14:00 +31°C° 1.2 mm 3 mps 756 mmHg 73%
    15:00 +31°C° 1.2 mm 3 mps 755 mmHg 75%
    16:00 +30°C° 1.2 mm 3 mps 755 mmHg 78%
    17:00 +30°C° 0.7 mm 3 mps 756 mmHg 79%
    18:00 +29°C° 0.7 mm 3 mps 756 mmHg 81%
    19:00 +28°C° 0.7 mm 2 mps 757 mmHg 83%
    20:00 +28°C° 0.2 mm 2 mps 757 mmHg 83%
    21:00 +28°C° 0.2 mm 2 mps 757 mmHg 83%
    22:00 +28°C° 0.2 mm 1 mps 758 mmHg 84%
    23:00 +28°C° 0 mm 1 mps 757 mmHg 84%

    29 September, Saturday

    Time Temperature Precipitation Wind Pressure Humidity
    00:00 +28°C° 0 mm 1 mps 757 mmHg 84%
    01:00 +28°C° 0 mm 1 mps 756 mmHg 84%
    02:00 +27°C° 0 mm 1 mps 756 mmHg 84%
    03:00 +27°C° 0 mm 1 mps 756 mmHg 85%
    04:00 +27°C° 0 mm 2 mps 756 mmHg 85%
    05:00 +28°C° 0.1 mm 2 mps 756 mmHg 84%
    06:00 +28°C° 0.1 mm 2 mps 757 mmHg 83%
    07:00 +28°C° 0.1 mm 2 mps 757 mmHg 82%
    08:00 +29°C° 0.2 mm 2 mps 757 mmHg 78%
    09:00 +30°C° 0.2 mm 3 mps 757 mmHg 75%
    10:00 +31°C° 0.2 mm 3 mps 757 mmHg 72%
    11:00 +31°C° 0.2 mm 3 mps 757 mmHg 70%
    12:00 +33°C° 0.2 mm 3 mps 756 mmHg 67%
    13:00 +33°C° 0.2 mm 3 mps 755 mmHg 65%
    14:00 +33°C° 0.3 mm 3 mps 755 mmHg 65%
    15:00 +31°C° 0.3 mm 3 mps 755 mmHg 65%
    16:00 +31°C° 0.3 mm 3 mps 755 mmHg 65%
    17:00 +30°C° 0 mm 3 mps 755 mmHg 67%
    18:00 +29°C° 0 mm 2 mps 756 mmHg 70%
    19:00 +28°C° 0 mm 2 mps 756 mmHg 72%
    20:00 +28°C° 0 mm 2 mps 757 mmHg 73%
    21:00 +28°C° 0 mm 1 mps 757 mmHg 73%
    22:00 +27°C° 0 mm 1 mps 757 mmHg 74%
    23:00 +27°C° 0 mm 1 mps 757 mmHg 74%

    30 September, Sunday

    Time Temperature Precipitation Wind Pressure Humidity
    00:00 +27°C° 0 mm 1 mps 756 mmHg 75%
    01:00 +27°C° 0 mm 2 mps 756 mmHg 76%
    02:00 +27°C° 0 mm 2 mps 756 mmHg 76%
    03:00 +27°C° 0 mm 2 mps 756 mmHg 77%
    04:00 +26°C° 0 mm 2 mps 756 mmHg 77%
    05:00 +27°C° 0 mm 2 mps 756 mmHg 76%
    06:00 +28°C° 0 mm 2 mps 757 mmHg 74%
    07:00 +28°C° 0 mm 2 mps 758 mmHg 73%
    08:00 +30°C° 0 mm 3 mps 758 mmHg 68%
    09:00 +32°C° 0 mm 4 mps 758 mmHg 62%
    10:00 +33°C° 0 mm 5 mps 758 mmHg 57%
    11:00 +33°C° 0 mm 5 mps 758 mmHg 56%
    12:00 +33°C° 0 mm 5 mps 757 mmHg 56%
    13:00 +33°C° 0 mm 6 mps 756 mmHg 55%
    14:00 +33°C° 0 mm 6 mps 756 mmHg 57%
    15:00 +32°C° 0 mm 6 mps 756 mmHg 59%
    16:00 +30°C° 0 mm 5 mps 756 mmHg 60%
    17:00 +30°C° 0 mm 5 mps 756 mmHg 64%
    18:00 +29°C° 0 mm 5 mps 757 mmHg 68%
    19:00 +28°C° 0 mm 4 mps 757 mmHg 71%
    20:00 +28°C° 0 mm 4 mps 758 mmHg 74%
    21:00 +28°C° 0 mm 4 mps 758 mmHg 76%
    22:00 +28°C° 0 mm 3 mps 758 mmHg 79%
    23:00 +28°C° 0.1 mm 3 mps 758 mmHg 80%

    1 October, Monday

    Time Temperature Precipitation Wind Pressure Humidity
    00:00 +27°C° 0.1 mm 3 mps 758 mmHg 81%
    01:00 +27°C° 0.1 mm 3 mps 758 mmHg 82%
    02:00 +27°C° 0.2 mm 3 mps 758 mmHg 83%
    03:00 +27°C° 0.2 mm 2 mps 758 mmHg 84%
    04:00 +27°C° 0.2 mm 2 mps 758 mmHg 84%
    05:00 +27°C° 0.3 mm 3 mps 758 mmHg 83%
    06:00 +28°C° 0.3 mm 3 mps 759 mmHg 81%
    07:00 +28°C° 0.3 mm 3 mps 759 mmHg 80%
    08:00 +29°C° 0.5 mm 4 mps 759 mmHg 79%
    09:00 +29°C° 0.5 mm 4 mps 760 mmHg 77%
    10:00 +29°C° 0.5 mm 5 mps 760 mmHg 76%
    11:00 +30°C° 0.5 mm 6 mps 759 mmHg 73%
    12:00 +30°C° 0.5 mm 6 mps 759 mmHg 70%
    13:00 +32°C° 0.5 mm 7 mps 758 mmHg 66%
    14:00 +32°C° 0 mm 7 mps 758 mmHg 67%
    15:00 +30°C° 0 mm 7 mps 758 mmHg 67%
    16:00 +30°C° 0 mm 7 mps 758 mmHg 67%
    17:00 +29°C° 0 mm 6 mps 758 mmHg 70%
    18:00 +29°C° 0 mm 6 mps 759 mmHg 73%
    19:00 +28°C° 0 mm 6 mps 759 mmHg 75%
    20:00 +28°C° 0 mm 6 mps 759 mmHg 76%
    21:00 +28°C° 0 mm 6 mps 760 mmHg 76%
    22:00 +28°C° 0 mm 5 mps 760 mmHg 77%
    23:00 +28°C° 0 mm 5 mps 760 mmHg 77%
    Show more